Location: Unspecified
(0.0000°N, 0.0000°E)
Time: 14:16:20
(UTC+01:00)

Cosmos 773 Rocket - Visible Passes

Search period start: 28 November 2014 00:00
Search period end: 08 December 2014 00:00
Orbit: 747 x 777 km, 74.1° (Epoch: 27 November)

Date Brightness Start Highest point End Pass type
(mag) Time Alt. Az. Time Alt. Az. Time Alt. Az.
05 Dec 6.7 21:35:40 10° S 21:35:45 10° S 21:35:45 10° S visible
06 Dec 6.3 20:57:42 10° SSE 20:58:12 12° SSE 20:58:12 12° SSE visible
07 Dec 6.8 22:00:11 10° SW 22:00:53 14° SW 22:00:53 14° SW visible
